Change the Weather History Date:

Sunday, August 10, 2014

  Actual Average Record
Temperature  
Mean Temperature 61 °F -  
Max Temperature 80 °F 79 °F 89 °F (1969)
Min Temperature 42 °F 40 °F 28 °F (1985)
Degree Days  
Heating Degree Days 4    
Growing Degree Days 11 (Base 50)    
Moisture  
Dew Point 43 °F    
Average Humidity 66    
Maximum Humidity 93    
Minimum Humidity 16    
Precipitation  
Precipitation 0.00 in - - ()
Sea Level Pressure  
Sea Level Pressure 30.38 in    
Wind  
Wind Speed 4 mph (North)    
Max Wind Speed 9 mph    
Max Gust Speed -    
Visibility 10 miles    
Events      
Averages and records for this station are not official NWS values.
T = Trace of Precipitation, MM = Missing Value Source: NWS Daily Summary

Daily Weather History Graph

Daily Weather History Graph

Search for Another Location

Airport or City:

Trip Planner

Search our weather history database for the weather conditions in past years. The results will help you decide how hot, cold, wet, or windy it might be!

Date:

Astronomy

Aug. 10, 2014 Rise Set
Actual Time 6:22 AM MDT 8:33 PM MDT
Civil Twilight 5:50 AM MDT 9:05 PM MDT
Nautical Twilight 5:11 AM MDT 9:44 PM MDT
Astronomical Twilight 4:28 AM MDT 10:26 PM MDT
Moon 8:20 PM MDT (8/10) 6:20 AM MDT (8/10)
Length of Visible Light 15h 14m
Length of Day
14h 11m
Full, 100% of the Moon is Illuminated
Aug 10
Full
Aug 10
Full
Aug 17
Last Quarter
Aug 25
New
Sep 2
First Quarter

Hourly Weather History & Observations

Time (MDT) Temp. Windchill Dew Point Humidity Pressure Visibility Wind Dir Wind Speed Gust Speed Precip Events Conditions
12:15 AM 51.8 °F - 44.6 °F 76% 30.35 in 10.0 mi North 8.1 mph - N/A   Clear
12:35 AM 50.0 °F - 44.6 °F 82% 30.36 in 10.0 mi North 3.5 mph - N/A   Clear
12:55 AM 51.8 °F - 44.6 °F 76% 30.35 in 10.0 mi North 9.2 mph - N/A   Clear
1:15 AM 51.8 °F - 44.6 °F 76% 30.36 in 10.0 mi North 8.1 mph - N/A   Clear
1:35 AM 51.8 °F - 44.6 °F 76% 30.36 in 10.0 mi North 4.6 mph - N/A   Clear
1:55 AM 51.8 °F - 44.6 °F 76% 30.36 in 10.0 mi NNW 4.6 mph - N/A   Clear
2:15 AM 51.8 °F - 44.6 °F 76% 30.36 in 10.0 mi North 6.9 mph - N/A   Clear
2:35 AM 50.0 °F - 42.8 °F 76% 30.36 in 10.0 mi NNE 3.5 mph - N/A   Clear
2:55 AM 48.2 °F - 42.8 °F 82% 30.37 in 10.0 mi North 6.9 mph - N/A   Clear
3:15 AM 46.4 °F 42.9 °F 42.8 °F 87% 30.37 in 10.0 mi NNW 6.9 mph - N/A   Clear
3:35 AM 48.2 °F - 44.6 °F 87% 30.37 in 10.0 mi North 3.5 mph - N/A   Clear
3:55 AM 48.2 °F - 44.6 °F 87% 30.37 in 10.0 mi Calm Calm - N/A   Clear
4:15 AM 46.4 °F - 44.6 °F 93% 30.38 in 10.0 mi Calm Calm - N/A   Clear
4:35 AM 48.2 °F - 44.6 °F 87% 30.39 in 10.0 mi NNW 4.6 mph - N/A   Clear
4:55 AM 46.4 °F 43.5 °F 42.8 °F 87% 30.39 in 10.0 mi North 5.8 mph - N/A   Clear
5:15 AM 44.6 °F 40.7 °F 42.8 °F 93% 30.39 in 10.0 mi North 6.9 mph - N/A   Clear
5:35 AM 42.8 °F - 41.0 °F 93% 30.40 in 10.0 mi Calm Calm - N/A   Clear
5:55 AM 44.6 °F - 42.8 °F 93% 30.40 in 10.0 mi Calm Calm - N/A   Clear
6:15 AM 44.6 °F 43.1 °F 42.8 °F 93% 30.42 in 10.0 mi SSW 3.5 mph - N/A   Clear
6:35 AM 42.8 °F 40.1 °F 41.0 °F 93% 30.43 in 10.0 mi WNW 4.6 mph - N/A   Clear
6:55 AM 44.6 °F - 42.8 °F 93% 30.44 in 10.0 mi Calm Calm - N/A   Clear
7:58 AM 51.8 °F - 44.6 °F 76% 30.45 in 10.0 mi Calm Calm - N/A   Clear
8:58 AM 55.4 °F - 46.4 °F 72% 30.45 in 10.0 mi Calm Calm - N/A   Clear
9:51 AM 59.0 °F - 46.4 °F 63% 30.45 in 10.0 mi Calm Calm - N/A   Clear
10:51 AM 64.4 °F - 48.2 °F 56% 30.44 in 10.0 mi Calm Calm - N/A   Clear
11:58 AM 71.6 °F - 44.6 °F 38% 30.42 in 10.0 mi SW 6.9 mph - N/A   Clear
12:39 PM 73.4 °F - 44.6 °F 36% 30.42 in 10.0 mi Calm Calm - N/A   Clear
1:00 PM 73.4 °F - 44.6 °F 36% 30.41 in 10.0 mi Calm Calm - N/A   Clear
1:51 PM 75.2 °F - 39.2 °F 27% 30.40 in 10.0 mi Calm Calm - N/A   Clear
2:53 PM 78.8 °F - 33.8 °F 20% 30.38 in - Calm Calm - N/A   Clear
3:51 PM 78.8 °F - 35.6 °F 21% 30.36 in 10.0 mi Calm Calm - N/A   Clear
5:51 PM 80.6 °F - 30.2 °F 16% 30.33 in 10.0 mi Variable 6.9 mph - N/A   Clear
6:51 PM 80.6 °F - 33.8 °F 18% 30.32 in 10.0 mi Calm Calm - N/A   Clear
7:57 PM 71.6 °F - 44.6 °F 38% 30.32 in 10.0 mi Calm Calm - N/A   Clear
8:55 PM 62.6 °F - 48.2 °F 59% 30.34 in 10.0 mi NW 3.5 mph - N/A   Clear
9:15 PM 62.6 °F - 41.0 °F 45% 30.34 in 10.0 mi Calm Calm - N/A   Clear
9:35 PM 60.8 °F - 42.8 °F 52% 30.35 in 10.0 mi Calm Calm - N/A   Clear
9:55 PM 62.6 °F - 41.0 °F 45% 30.36 in 10.0 mi NE 3.5 mph - N/A   Clear
10:15 PM 57.2 °F - 42.8 °F 59% 30.36 in 10.0 mi NNW 4.6 mph - N/A   Clear
10:35 PM 55.4 °F - 44.6 °F 67% 30.36 in 10.0 mi NNE 3.5 mph - N/A   Clear
10:55 PM 55.4 °F - 42.8 °F 63% 30.36 in 10.0 mi NE 3.5 mph - N/A   Clear
11:15 PM 55.4 °F - 42.8 °F 63% 30.37 in 10.0 mi North 4.6 mph - N/A   Clear
11:35 PM 51.8 °F - 42.8 °F 71% 30.37 in 10.0 mi North 4.6 mph - N/A   Clear
11:55 PM 51.8 °F - 42.8 °F 71% 30.38 in 10.0 mi NNW 5.8 mph - N/A   Clear